Location: Ambatotampy
(18.8181°S, 47.6186°E)
Time: 23:53:19
(UTC+00:00)

Cosmos 1758 - Pass Details

Date: 21 January 2021
Orbit: 539 x 562 km, 82.5° (Epoch: 24 February)

Event Time Altitude Azimuth Distance (km) Brightness Sun altitude
Rises 01:17:03 0° 186° (S) 2,716 7.2 -16.2°
Reaches altitude 10° 01:19:13 10° 186° (S) 1,820 6.2 -15.8°
Maximum altitude 01:23:13 84° 273° (W) 554 3.2 -14.9°
Drops below altitude 10° 01:27:12 10° 2° (N) 1,809 5.7 -14.1°
Sets 01:29:21 0° 3° (N) 2,698 6.6 -13.7°
